[Date Prev][Date Next][Thread Prev][Thread Next] - [Date Index][Thread Index][Author Index]
2 Line ISS Keps 10-26
- Subject: [sarex] 2 Line ISS Keps 10-26
- From: "Dave Larsen PhD" <doc@xxxxxxxxxxx>
- Date: Sun, 26 Oct 2003 02:45:38 -0800
ISS
1 25544U 98067A 03299.16663194 .00020673 00000-0 22991-3 0 7047
2 25544 51.6308 80.0207 0006575 79.3211 273.1055 15.62827688281465
----
Via the sarex mailing list at AMSAT.ORG courtesy of AMSAT-NA.
To unsubscribe, send "unsubscribe sarex" to Majordomo@amsat.org
AMSAT Home